Year,Month,Day,Hour,Minute,Value (Times are PST for temperature in C)
2009,06,04,00,00,18.30
2009,06,04,00,01,18.30
2009,06,04,00,02,18.30
2009,06,04,00,03,18.30
2009,06,04,00,04,18.30
2009,06,04,00,05,18.30
2009,06,04,00,06,18.30
2009,06,04,00,07,18.30
2009,06,04,00,08,18.30
2009,06,04,00,09,18.30
2009,06,04,00,10,18.30
2009,06,04,00,11,18.30
2009,06,04,00,12,18.30
2009,06,04,00,13,18.30
2009,06,04,00,14,18.30
2009,06,04,00,15,18.30
2009,06,04,00,16,18.30
2009,06,04,00,17,18.20
2009,06,04,00,18,18.20
2009,06,04,00,19,18.20
2009,06,04,00,20,18.20
2009,06,04,00,21,18.20
2009,06,04,00,22,18.20
2009,06,04,00,23,18.10
2009,06,04,00,24,18.10
2009,06,04,00,25,18.10
2009,06,04,00,26,18.10
2009,06,04,00,27,18.10
2009,06,04,00,28,18.10
2009,06,04,00,29,18.10
2009,06,04,00,30,18.00
2009,06,04,00,31,18.00
2009,06,04,00,32,18.00
2009,06,04,00,33,17.90
2009,06,04,00,34,17.90
2009,06,04,00,35,17.90
2009,06,04,00,36,17.90
2009,06,04,00,37,17.90
2009,06,04,00,38,17.80
2009,06,04,00,39,17.80
2009,06,04,00,40,17.80
2009,06,04,00,41,17.80
2009,06,04,00,42,17.70
2009,06,04,00,43,17.70
2009,06,04,00,44,17.70
2009,06,04,00,45,17.60
2009,06,04,00,46,17.60
2009,06,04,00,47,17.60
2009,06,04,00,48,17.60
2009,06,04,00,49,17.50
2009,06,04,00,50,17.50
2009,06,04,00,51,17.50
2009,06,04,00,52,17.40
2009,06,04,00,53,17.40
2009,06,04,00,54,17.30
2009,06,04,00,55,17.30
2009,06,04,00,56,17.20
2009,06,04,00,57,17.20
2009,06,04,00,58,17.20
2009,06,04,00,59,17.10
2009,06,04,01,00,17.00
2009,06,04,01,01,17.00
2009,06,04,01,02,16.90
2009,06,04,01,03,16.90
2009,06,04,01,04,16.90
2009,06,04,01,05,16.80
2009,06,04,01,06,16.80
2009,06,04,01,07,16.80
2009,06,04,01,08,16.70
2009,06,04,01,09,16.70
2009,06,04,01,10,16.70
2009,06,04,01,11,16.70
2009,06,04,01,12,16.70
2009,06,04,01,13,16.70
2009,06,04,01,14,16.70
2009,06,04,01,15,16.60
2009,06,04,01,16,16.70
2009,06,04,01,17,16.70
2009,06,04,01,18,16.70
2009,06,04,01,19,16.70
2009,06,04,01,20,16.70
2009,06,04,01,21,16.70
2009,06,04,01,22,16.70
2009,06,04,01,23,16.70
2009,06,04,01,24,16.80
2009,06,04,01,25,16.80
2009,06,04,01,26,16.80
2009,06,04,01,27,16.80
2009,06,04,01,28,16.90
2009,06,04,01,29,16.80
2009,06,04,01,30,16.80
2009,06,04,01,31,16.80
2009,06,04,01,32,16.80
2009,06,04,01,33,16.80
2009,06,04,01,34,16.80
2009,06,04,01,35,16.80
2009,06,04,01,36,16.70
2009,06,04,01,37,16.70
2009,06,04,01,38,16.70
2009,06,04,01,39,16.70
2009,06,04,01,40,16.70
2009,06,04,01,41,16.70
2009,06,04,01,42,16.70
2009,06,04,01,43,16.70
2009,06,04,01,44,16.60
2009,06,04,01,45,16.60
2009,06,04,01,46,16.60
2009,06,04,01,47,16.60
2009,06,04,01,48,16.50
2009,06,04,01,49,16.50
2009,06,04,01,50,16.50
2009,06,04,01,51,16.50
2009,06,04,01,52,16.40
2009,06,04,01,53,16.40
2009,06,04,01,54,16.40
2009,06,04,01,55,16.30
2009,06,04,01,56,16.30
2009,06,04,01,57,16.30
2009,06,04,01,58,16.30
2009,06,04,01,59,16.20
2009,06,04,02,00,16.20
2009,06,04,02,01,16.20
2009,06,04,02,02,16.20
2009,06,04,02,03,16.20
2009,06,04,02,04,16.20
2009,06,04,02,05,16.20
2009,06,04,02,06,16.30
2009,06,04,02,07,16.30
2009,06,04,02,08,16.30
2009,06,04,02,09,16.30
2009,06,04,02,10,16.30
2009,06,04,02,11,16.30
2009,06,04,02,12,16.30
2009,06,04,02,13,16.20
2009,06,04,02,14,16.20
2009,06,04,02,15,16.20
2009,06,04,02,16,16.20
2009,06,04,02,17,16.20
2009,06,04,02,18,16.20
2009,06,04,02,19,16.20
2009,06,04,02,20,16.20
2009,06,04,02,21,16.20
2009,06,04,02,22,16.20
2009,06,04,02,23,16.20
2009,06,04,02,24,16.30
2009,06,04,02,25,16.40
2009,06,04,02,26,16.50
2009,06,04,02,27,16.50
2009,06,04,02,28,16.60
2009,06,04,02,29,16.70
2009,06,04,02,30,16.80
2009,06,04,02,31,16.80
2009,06,04,02,32,16.90
2009,06,04,02,33,16.90
2009,06,04,02,34,16.90
2009,06,04,02,35,17.00
2009,06,04,02,36,17.00
2009,06,04,02,37,17.00
2009,06,04,02,38,17.00
2009,06,04,02,39,16.90
2009,06,04,02,40,16.90
2009,06,04,02,41,16.90
2009,06,04,02,42,16.80
2009,06,04,02,43,16.80
2009,06,04,02,44,16.80
2009,06,04,02,45,16.80
2009,06,04,02,46,16.80
2009,06,04,02,47,16.70
2009,06,04,02,48,16.70
2009,06,04,02,49,16.70
2009,06,04,02,50,16.70
2009,06,04,02,51,16.70
2009,06,04,02,52,16.70
2009,06,04,02,53,16.70
2009,06,04,02,54,16.60
2009,06,04,02,55,16.60
2009,06,04,02,56,16.60
2009,06,04,02,57,16.50
2009,06,04,02,58,16.50
2009,06,04,02,59,16.40
2009,06,04,03,00,16.40
2009,06,04,03,01,16.30
2009,06,04,03,02,16.30
2009,06,04,03,03,16.20
2009,06,04,03,04,16.20
2009,06,04,03,05,16.10
2009,06,04,03,06,16.10
2009,06,04,03,07,16.00
2009,06,04,03,08,16.00
2009,06,04,03,09,15.90
2009,06,04,03,10,15.90
2009,06,04,03,11,15.90
2009,06,04,03,12,15.90
2009,06,04,03,13,15.90
2009,06,04,03,14,15.90
2009,06,04,03,15,15.90
2009,06,04,03,16,15.90
2009,06,04,03,17,15.90
2009,06,04,03,18,15.90
2009,06,04,03,19,15.90
2009,06,04,03,20,15.90
2009,06,04,03,21,15.90
2009,06,04,03,22,15.90
2009,06,04,03,23,15.80
2009,06,04,03,24,15.80
2009,06,04,03,25,15.80
2009,06,04,03,26,15.80
2009,06,04,03,27,15.70
2009,06,04,03,28,15.70
2009,06,04,03,29,15.60
2009,06,04,03,30,15.60
2009,06,04,03,31,15.60
2009,06,04,03,32,15.50
2009,06,04,03,33,15.40
2009,06,04,03,34,15.40
2009,06,04,03,35,15.30
2009,06,04,03,36,15.30
2009,06,04,03,37,15.30
2009,06,04,03,38,15.20
2009,06,04,03,39,15.20
2009,06,04,03,40,15.20
2009,06,04,03,41,15.10
2009,06,04,03,42,15.10
2009,06,04,03,43,15.10
2009,06,04,03,44,15.00
2009,06,04,03,45,15.00
2009,06,04,03,46,15.00
2009,06,04,03,47,15.00
2009,06,04,03,48,14.90
2009,06,04,03,49,14.90
2009,06,04,03,50,14.90
2009,06,04,03,51,14.90
2009,06,04,03,52,14.90
2009,06,04,03,53,14.90
2009,06,04,03,54,14.90
2009,06,04,03,55,14.90
2009,06,04,03,56,14.80
2009,06,04,03,57,14.80
2009,06,04,03,58,14.80
2009,06,04,03,59,14.80
2009,06,04,04,00,14.80
2009,06,04,04,01,14.70
2009,06,04,04,02,14.70
2009,06,04,04,03,14.70
2009,06,04,04,04,14.60
2009,06,04,04,05,14.60
2009,06,04,04,06,14.60
2009,06,04,04,07,14.60
2009,06,04,04,08,14.60
2009,06,04,04,09,14.50
2009,06,04,04,10,14.50
2009,06,04,04,11,14.50
2009,06,04,04,12,14.50
2009,06,04,04,13,14.50
2009,06,04,04,14,14.40
2009,06,04,04,15,14.40
2009,06,04,04,16,14.40
2009,06,04,04,17,14.40
2009,06,04,04,18,14.40
2009,06,04,04,19,14.40
2009,06,04,04,20,14.40
2009,06,04,04,21,14.30
2009,06,04,04,22,14.30
2009,06,04,04,23,14.30
2009,06,04,04,24,14.30
2009,06,04,04,25,14.30
2009,06,04,04,26,14.30
2009,06,04,04,27,14.20
2009,06,04,04,28,14.20
2009,06,04,04,29,14.20
2009,06,04,04,30,14.20
2009,06,04,04,31,14.10
2009,06,04,04,32,14.10
2009,06,04,04,33,14.10
2009,06,04,04,34,14.10
2009,06,04,04,35,14.10
2009,06,04,04,36,14.00
2009,06,04,04,37,14.00
2009,06,04,04,38,13.90
2009,06,04,04,39,13.90
2009,06,04,04,40,13.90
2009,06,04,04,41,13.90
2009,06,04,04,42,13.90
2009,06,04,04,43,13.90
2009,06,04,04,44,13.90
2009,06,04,04,45,13.90
2009,06,04,04,46,13.90
2009,06,04,04,47,14.00
2009,06,04,04,48,13.90
2009,06,04,04,49,13.90
2009,06,04,04,50,13.90
2009,06,04,04,51,13.90
2009,06,04,04,52,13.90
2009,06,04,04,53,13.90
2009,06,04,04,54,13.90
2009,06,04,04,55,13.90
2009,06,04,04,56,14.00
2009,06,04,04,57,13.90
2009,06,04,04,58,13.90
2009,06,04,04,59,13.90
2009,06,04,05,00,13.90
2009,06,04,05,01,13.90
2009,06,04,05,02,13.90
2009,06,04,05,03,13.90
2009,06,04,05,04,13.90
2009,06,04,05,05,13.90
2009,06,04,05,06,13.90
2009,06,04,05,07,13.80
2009,06,04,05,08,13.80
2009,06,04,05,09,13.80
2009,06,04,05,10,13.80
2009,06,04,05,11,13.80
2009,06,04,05,12,13.80
2009,06,04,05,13,13.80
2009,06,04,05,14,13.80
2009,06,04,05,15,13.80
2009,06,04,05,16,13.80
2009,06,04,05,17,13.70
2009,06,04,05,18,13.70
2009,06,04,05,19,13.70
2009,06,04,05,20,13.70
2009,06,04,05,21,13.70
2009,06,04,05,22,13.70
2009,06,04,05,23,13.70
2009,06,04,05,24,13.70
2009,06,04,05,25,13.70
2009,06,04,05,26,13.80
2009,06,04,05,27,13.80
2009,06,04,05,28,13.90
2009,06,04,05,29,14.00
2009,06,04,05,30,14.20
2009,06,04,05,31,14.40
2009,06,04,05,32,14.70
2009,06,04,05,33,14.90
2009,06,04,05,34,15.20
2009,06,04,05,35,15.40
2009,06,04,05,36,15.60
2009,06,04,05,37,15.80
2009,06,04,05,38,15.90
2009,06,04,05,39,16.00
2009,06,04,05,40,16.00
2009,06,04,05,41,16.10
2009,06,04,05,42,16.20
2009,06,04,05,43,16.40
2009,06,04,05,44,16.50
2009,06,04,05,45,16.70
2009,06,04,05,46,16.80
2009,06,04,05,47,16.90
2009,06,04,05,48,16.90
2009,06,04,05,49,17.00
2009,06,04,05,50,17.10
2009,06,04,05,51,17.10
2009,06,04,05,52,17.20
2009,06,04,05,53,17.30
2009,06,04,05,54,17.30
2009,06,04,05,55,17.30
2009,06,04,05,56,17.40
2009,06,04,05,57,17.40
2009,06,04,05,58,17.40
2009,06,04,05,59,17.40
2009,06,04,06,00,17.40
2009,06,04,06,01,17.50
2009,06,04,06,02,17.50
2009,06,04,06,03,17.60
2009,06,04,06,04,17.60
2009,06,04,06,05,17.60
2009,06,04,06,06,17.60
2009,06,04,06,07,17.50
2009,06,04,06,08,17.50
2009,06,04,06,09,17.40
2009,06,04,06,10,17.40
2009,06,04,06,11,17.30
2009,06,04,06,12,17.30
2009,06,04,06,13,17.30
2009,06,04,06,14,17.30
2009,06,04,06,15,17.30
2009,06,04,06,16,17.30
2009,06,04,06,17,17.30
2009,06,04,06,18,17.30
2009,06,04,06,19,17.30
2009,06,04,06,20,17.20
2009,06,04,06,21,17.20
2009,06,04,06,22,17.20
2009,06,04,06,23,17.20
2009,06,04,06,24,17.20
2009,06,04,06,25,17.20
2009,06,04,06,26,17.20
2009,06,04,06,27,17.10
2009,06,04,06,28,17.10
2009,06,04,06,29,17.10
2009,06,04,06,30,17.00
2009,06,04,06,31,17.00
2009,06,04,06,32,17.00
2009,06,04,06,33,17.00
2009,06,04,06,34,17.00
2009,06,04,06,35,17.10
2009,06,04,06,36,17.20
2009,06,04,06,37,17.30
2009,06,04,06,38,17.40
2009,06,04,06,39,17.40
2009,06,04,06,40,17.50
2009,06,04,06,41,17.60
2009,06,04,06,42,17.70
2009,06,04,06,43,17.80
2009,06,04,06,44,17.90
2009,06,04,06,45,18.00
2009,06,04,06,46,18.10
2009,06,04,06,47,18.20
2009,06,04,06,48,18.20
2009,06,04,06,49,18.30
2009,06,04,06,50,18.30
2009,06,04,06,51,18.30
2009,06,04,06,52,18.30
2009,06,04,06,53,18.30
2009,06,04,06,54,18.30
2009,06,04,06,55,18.30
2009,06,04,06,56,18.40
2009,06,04,06,57,18.40
2009,06,04,06,58,18.40
2009,06,04,06,59,18.40
2009,06,04,07,00,18.40
2009,06,04,07,01,18.40
2009,06,04,07,02,18.40
2009,06,04,07,03,18.50
2009,06,04,07,04,18.50
2009,06,04,07,05,18.50
2009,06,04,07,06,18.60
2009,06,04,07,07,18.60
2009,06,04,07,08,18.60
2009,06,04,07,09,18.70
2009,06,04,07,10,18.70
2009,06,04,07,11,18.80
2009,06,04,07,12,18.80
2009,06,04,07,13,18.80
2009,06,04,07,14,18.80
2009,06,04,07,15,18.90
2009,06,04,07,16,18.90
2009,06,04,07,17,18.90
2009,06,04,07,18,18.90
2009,06,04,07,19,18.90
2009,06,04,07,20,18.90
2009,06,04,07,21,18.90
2009,06,04,07,22,18.90
2009,06,04,07,23,18.90
2009,06,04,07,24,18.90
2009,06,04,07,25,18.90
2009,06,04,07,26,18.90
2009,06,04,07,27,18.90
2009,06,04,07,28,18.90
2009,06,04,07,29,19.00
2009,06,04,07,30,19.10
2009,06,04,07,31,19.10
2009,06,04,07,32,19.10
2009,06,04,07,33,19.20
2009,06,04,07,34,19.20
2009,06,04,07,35,19.30
2009,06,04,07,36,19.30
2009,06,04,07,37,19.40
2009,06,04,07,38,19.50
2009,06,04,07,39,19.50
2009,06,04,07,40,19.60
2009,06,04,07,41,19.70
2009,06,04,07,42,19.80
2009,06,04,07,43,19.80
2009,06,04,07,44,19.90
2009,06,04,07,45,20.00
2009,06,04,07,46,20.00
2009,06,04,07,47,20.10
2009,06,04,07,48,20.20
2009,06,04,07,49,20.30
2009,06,04,07,50,20.30
2009,06,04,07,51,20.50
2009,06,04,07,52,20.50
2009,06,04,07,53,20.60
2009,06,04,07,54,20.70
2009,06,04,07,55,20.80
2009,06,04,07,56,20.90
2009,06,04,07,57,21.00
2009,06,04,07,58,21.00
2009,06,04,07,59,21.10
2009,06,04,08,00,21.20
2009,06,04,08,01,21.20
2009,06,04,08,02,21.30
2009,06,04,08,03,21.40
2009,06,04,08,04,21.50
2009,06,04,08,05,21.50
2009,06,04,08,06,21.60
2009,06,04,08,07,21.60
2009,06,04,08,08,21.60
2009,06,04,08,09,21.70
2009,06,04,08,10,21.70
2009,06,04,08,11,21.80
2009,06,04,08,12,21.80
2009,06,04,08,13,21.90
2009,06,04,08,14,21.90
2009,06,04,08,15,22.00
2009,06,04,08,16,22.10
2009,06,04,08,17,22.10
2009,06,04,08,18,22.20
2009,06,04,08,19,22.20
2009,06,04,08,20,22.20
2009,06,04,08,21,22.30
2009,06,04,08,22,22.30
2009,06,04,08,23,22.30
2009,06,04,08,24,22.30
2009,06,04,08,25,22.30
2009,06,04,08,26,22.30
2009,06,04,08,27,22.30
2009,06,04,08,28,22.30
2009,06,04,08,29,22.30
2009,06,04,08,30,22.30
2009,06,04,08,31,22.40
2009,06,04,08,32,22.40
2009,06,04,08,33,22.50
2009,06,04,08,34,22.50
2009,06,04,08,35,22.60
2009,06,04,08,36,22.60
2009,06,04,08,37,22.70
2009,06,04,08,38,22.60
2009,06,04,08,39,22.60
2009,06,04,08,40,22.60
2009,06,04,08,41,22.50
2009,06,04,08,42,22.50
2009,06,04,08,43,22.50
2009,06,04,08,44,22.40
2009,06,04,08,45,22.40
2009,06,04,08,46,22.40
2009,06,04,08,47,22.40
2009,06,04,08,48,22.40
2009,06,04,08,49,22.40
2009,06,04,08,50,22.50
2009,06,04,08,51,22.50
2009,06,04,08,52,22.50
2009,06,04,08,53,22.60
2009,06,04,08,54,22.60
2009,06,04,08,55,22.60
2009,06,04,08,56,22.70
2009,06,04,08,57,22.70
2009,06,04,08,58,22.80
2009,06,04,08,59,22.80
2009,06,04,09,00,22.80
2009,06,04,09,01,22.80
2009,06,04,09,02,22.80
2009,06,04,09,03,22.90
2009,06,04,09,04,22.90
2009,06,04,09,05,23.00
2009,06,04,09,06,23.00
2009,06,04,09,07,23.00
2009,06,04,09,08,23.10
2009,06,04,09,09,23.10
2009,06,04,09,10,23.10
2009,06,04,09,11,23.20
2009,06,04,09,12,23.20
2009,06,04,09,13,23.20
2009,06,04,09,14,23.30
2009,06,04,09,15,23.30
2009,06,04,09,16,23.30
2009,06,04,09,17,23.30
2009,06,04,09,18,23.30
2009,06,04,09,19,23.30
2009,06,04,09,20,23.30
2009,06,04,09,21,23.30
2009,06,04,09,22,23.30
2009,06,04,09,23,23.30
2009,06,04,09,24,23.30
2009,06,04,09,25,23.30
2009,06,04,09,26,23.30
2009,06,04,09,27,23.20
2009,06,04,09,28,23.20
2009,06,04,09,29,23.20
2009,06,04,09,30,23.20
2009,06,04,09,31,23.20
2009,06,04,09,32,23.20
2009,06,04,09,33,23.20
2009,06,04,09,34,23.20
2009,06,04,09,35,23.20
2009,06,04,09,36,23.20
2009,06,04,09,37,23.20
2009,06,04,09,38,23.20
2009,06,04,09,39,23.20
2009,06,04,09,40,23.20
2009,06,04,09,41,23.20
2009,06,04,09,42,23.20
2009,06,04,09,43,23.10
2009,06,04,09,44,23.10
2009,06,04,09,45,23.10
2009,06,04,09,46,23.10
2009,06,04,09,47,23.20
2009,06,04,09,48,23.20
2009,06,04,09,49,23.20
2009,06,04,09,50,23.30
2009,06,04,09,51,23.40
2009,06,04,09,52,23.50
2009,06,04,09,53,23.60
2009,06,04,09,54,23.70
2009,06,04,09,55,23.70
2009,06,04,09,56,23.80
2009,06,04,09,57,23.80
2009,06,04,09,58,23.80
2009,06,04,09,59,23.80
2009,06,04,10,00,23.80
2009,06,04,10,01,23.70
2009,06,04,10,02,23.70
2009,06,04,10,03,23.70
2009,06,04,10,04,23.70
2009,06,04,10,05,23.70
2009,06,04,10,06,23.70
2009,06,04,10,07,23.60
2009,06,04,10,08,23.60
2009,06,04,10,09,23.60
2009,06,04,10,10,23.60
2009,06,04,10,11,23.60
2009,06,04,10,12,23.50
2009,06,04,10,13,23.50
2009,06,04,10,14,23.50
2009,06,04,10,15,23.40
2009,06,04,10,16,23.40
2009,06,04,10,17,23.30
2009,06,04,10,18,23.30
2009,06,04,10,19,23.30
2009,06,04,10,20,23.30
2009,06,04,10,21,23.20
2009,06,04,10,22,23.20
2009,06,04,10,23,23.20
2009,06,04,10,24,23.20
2009,06,04,10,25,23.20
2009,06,04,10,26,23.20
2009,06,04,10,27,23.20
2009,06,04,10,28,23.20
2009,06,04,10,29,23.20
2009,06,04,10,30,23.30
2009,06,04,10,31,23.30
2009,06,04,10,32,23.30
2009,06,04,10,33,23.30
2009,06,04,10,34,23.40
2009,06,04,10,35,23.50
2009,06,04,10,36,23.60
2009,06,04,10,37,23.60
2009,06,04,10,38,23.70
2009,06,04,10,39,23.80
2009,06,04,10,40,23.90
2009,06,04,10,41,23.90
2009,06,04,10,42,24.00
2009,06,04,10,43,24.00
2009,06,04,10,44,24.10
2009,06,04,10,45,24.10
2009,06,04,10,46,24.20
2009,06,04,10,47,24.20
2009,06,04,10,48,24.30
2009,06,04,10,49,24.40
2009,06,04,10,50,24.40
2009,06,04,10,51,24.40
2009,06,04,10,52,24.40
2009,06,04,10,53,24.40
2009,06,04,10,54,24.50
2009,06,04,10,55,24.50
2009,06,04,10,56,24.60
2009,06,04,10,57,24.70
2009,06,04,10,58,24.70
2009,06,04,10,59,24.80
2009,06,04,11,00,24.80
2009,06,04,11,01,24.80
2009,06,04,11,02,24.80
2009,06,04,11,03,24.80
2009,06,04,11,04,24.70
2009,06,04,11,05,24.70
2009,06,04,11,06,24.70
2009,06,04,11,07,24.70
2009,06,04,11,08,24.70
2009,06,04,11,09,24.80
2009,06,04,11,10,24.80
2009,06,04,11,11,24.90
2009,06,04,11,12,24.90
2009,06,04,11,13,24.90
2009,06,04,11,14,24.90
2009,06,04,11,15,24.80
2009,06,04,11,16,24.80
2009,06,04,11,17,24.80
2009,06,04,11,18,24.80
2009,06,04,11,19,24.90
2009,06,04,11,20,25.00
2009,06,04,11,21,25.10
2009,06,04,11,22,25.10
2009,06,04,11,23,25.20
2009,06,04,11,24,25.20
2009,06,04,11,25,25.30
2009,06,04,11,26,25.40
2009,06,04,11,27,25.40
2009,06,04,11,28,25.40
2009,06,04,11,29,25.40
2009,06,04,11,30,25.40
2009,06,04,11,31,25.40
2009,06,04,11,32,25.50
2009,06,04,11,33,25.50
2009,06,04,11,34,25.50
2009,06,04,11,35,25.60
2009,06,04,11,36,25.60
2009,06,04,11,37,25.60
2009,06,04,11,38,25.60
2009,06,04,11,39,25.70
2009,06,04,11,40,25.70
2009,06,04,11,41,25.80
2009,06,04,11,42,25.70
2009,06,04,11,43,25.60
2009,06,04,11,44,25.60
2009,06,04,11,45,25.50
2009,06,04,11,46,25.50
2009,06,04,11,47,25.50
2009,06,04,11,48,25.50
2009,06,04,11,49,25.40
2009,06,04,11,50,25.40
2009,06,04,11,51,25.50
2009,06,04,11,52,25.50
2009,06,04,11,53,25.60
2009,06,04,11,54,25.60
2009,06,04,11,55,25.70
2009,06,04,11,56,25.70
2009,06,04,11,57,25.70
2009,06,04,11,58,25.70
2009,06,04,11,59,25.70
2009,06,04,12,00,25.70
2009,06,04,12,01,25.70
2009,06,04,12,02,25.70
2009,06,04,12,03,25.80
2009,06,04,12,04,25.80
2009,06,04,12,05,25.80
2009,06,04,12,06,25.80
2009,06,04,12,07,25.80
2009,06,04,12,08,25.80
2009,06,04,12,09,25.80
2009,06,04,12,10,25.80
2009,06,04,12,11,25.70
2009,06,04,12,12,25.70
2009,06,04,12,13,25.70
2009,06,04,12,14,25.70
2009,06,04,12,15,25.70
2009,06,04,12,16,25.70
2009,06,04,12,17,25.80
2009,06,04,12,18,26.00
2009,06,04,12,19,26.10
2009,06,04,12,20,26.10
2009,06,04,12,21,26.10
2009,06,04,12,22,26.10
2009,06,04,12,23,26.20
2009,06,04,12,24,26.20
2009,06,04,12,25,26.30
2009,06,04,12,26,26.30
2009,06,04,12,27,26.30
2009,06,04,12,28,26.30
2009,06,04,12,29,26.30
2009,06,04,12,30,26.30
2009,06,04,12,31,26.40
2009,06,04,12,32,26.40
2009,06,04,12,33,26.40
2009,06,04,12,34,26.40
2009,06,04,12,35,26.30
2009,06,04,12,36,26.40
2009,06,04,12,37,26.40
2009,06,04,12,38,26.50
2009,06,04,12,39,26.50
2009,06,04,12,40,26.50
2009,06,04,12,41,26.50
2009,06,04,12,42,26.50
2009,06,04,12,43,26.50
2009,06,04,12,44,26.60
2009,06,04,12,45,26.70
2009,06,04,12,46,26.70
2009,06,04,12,47,26.60
2009,06,04,12,48,26.50
2009,06,04,12,49,26.40
2009,06,04,12,50,26.30
2009,06,04,12,51,26.30
2009,06,04,12,52,26.30
2009,06,04,12,53,26.30
2009,06,04,12,54,26.30
2009,06,04,12,55,26.30
2009,06,04,12,56,26.30
2009,06,04,12,57,26.40
2009,06,04,12,58,26.40
2009,06,04,12,59,26.40
2009,06,04,13,00,26.30
2009,06,04,13,01,26.20
2009,06,04,13,02,26.10
2009,06,04,13,03,26.10
2009,06,04,13,04,26.10
2009,06,04,13,05,26.20
2009,06,04,13,06,26.30
2009,06,04,13,07,26.30
2009,06,04,13,08,26.30
2009,06,04,13,09,26.30
2009,06,04,13,10,26.30
2009,06,04,13,11,26.30
2009,06,04,13,12,26.30
2009,06,04,13,13,26.30
2009,06,04,13,14,26.30
2009,06,04,13,15,26.30
2009,06,04,13,16,26.30
2009,06,04,13,17,26.30
2009,06,04,13,18,26.30
2009,06,04,13,19,26.30
2009,06,04,13,20,26.30
2009,06,04,13,21,26.40
2009,06,04,13,22,26.40
2009,06,04,13,23,26.40
2009,06,04,13,24,26.50
2009,06,04,13,25,26.60
2009,06,04,13,26,26.70
2009,06,04,13,27,26.80
2009,06,04,13,28,26.80
2009,06,04,13,29,26.90
2009,06,04,13,30,26.90
2009,06,04,13,31,26.80
2009,06,04,13,32,26.80
2009,06,04,13,33,26.80
2009,06,04,13,34,26.80
2009,06,04,13,35,26.80
2009,06,04,13,36,26.80
2009,06,04,13,37,26.80
2009,06,04,13,38,26.80
2009,06,04,13,39,26.90
2009,06,04,13,40,26.90
2009,06,04,13,41,27.00
2009,06,04,13,42,27.10
2009,06,04,13,43,27.20
2009,06,04,13,44,27.30
2009,06,04,13,45,27.30
2009,06,04,13,46,27.40
2009,06,04,13,47,27.50
2009,06,04,13,48,27.60
2009,06,04,13,49,27.70
2009,06,04,13,50,27.80
2009,06,04,13,51,27.80
2009,06,04,13,52,27.90
2009,06,04,13,53,28.00
2009,06,04,13,54,28.00
2009,06,04,13,55,27.90
2009,06,04,13,56,27.80
2009,06,04,13,57,27.70
2009,06,04,13,58,27.60
2009,06,04,13,59,27.50
2009,06,04,14,00,27.40
2009,06,04,14,01,27.30
2009,06,04,14,02,27.30
2009,06,04,14,03,27.30
2009,06,04,14,04,27.40
2009,06,04,14,05,27.50
2009,06,04,14,06,27.60
2009,06,04,14,07,27.70
2009,06,04,14,08,27.80
2009,06,04,14,09,28.00
2009,06,04,14,10,28.00
2009,06,04,14,11,28.10
2009,06,04,14,12,28.00
2009,06,04,14,13,27.90
2009,06,04,14,14,27.80
2009,06,04,14,15,27.70
2009,06,04,14,16,27.70
2009,06,04,14,17,27.60
2009,06,04,14,18,27.60
2009,06,04,14,19,27.50
2009,06,04,14,20,27.40
2009,06,04,14,21,27.30
2009,06,04,14,22,27.30
2009,06,04,14,23,27.40
2009,06,04,14,24,27.50
2009,06,04,14,25,27.60
2009,06,04,14,26,27.70
2009,06,04,14,27,27.80
2009,06,04,14,28,27.80
2009,06,04,14,29,27.90
2009,06,04,14,30,27.90
2009,06,04,14,31,27.80
2009,06,04,14,32,27.80
2009,06,04,14,33,27.80
2009,06,04,14,34,27.80
2009,06,04,14,35,27.80
2009,06,04,14,36,27.70
2009,06,04,14,37,27.70
2009,06,04,14,38,27.70
2009,06,04,14,39,27.70
2009,06,04,14,40,27.70
2009,06,04,14,41,27.80
2009,06,04,14,42,27.80
2009,06,04,14,43,27.80
2009,06,04,14,44,27.80
2009,06,04,14,45,27.80
2009,06,04,14,46,27.80
2009,06,04,14,47,27.80
2009,06,04,14,48,27.80
2009,06,04,14,49,27.90
2009,06,04,14,50,27.90
2009,06,04,14,51,28.00
2009,06,04,14,52,28.10
2009,06,04,14,53,28.20
2009,06,04,14,54,28.20
2009,06,04,14,55,28.20
2009,06,04,14,56,28.20
2009,06,04,14,57,28.20
2009,06,04,14,58,28.20
2009,06,04,14,59,28.20
2009,06,04,15,00,28.10
2009,06,04,15,01,28.10
2009,06,04,15,02,28.20
2009,06,04,15,03,28.20
2009,06,04,15,04,28.20
2009,06,04,15,05,28.10
2009,06,04,15,06,28.10
2009,06,04,15,07,28.20
2009,06,04,15,08,28.20
2009,06,04,15,09,28.10
2009,06,04,15,10,28.10
2009,06,04,15,11,28.10
2009,06,04,15,12,28.20
2009,06,04,15,13,28.30
2009,06,04,15,14,28.30
2009,06,04,15,15,28.30
2009,06,04,15,16,28.30
2009,06,04,15,17,28.30
2009,06,04,15,18,28.30
2009,06,04,15,19,28.30
2009,06,04,15,20,28.40
2009,06,04,15,21,28.40
2009,06,04,15,22,28.50
2009,06,04,15,23,28.50
2009,06,04,15,24,28.60
2009,06,04,15,25,28.70
2009,06,04,15,26,28.70
2009,06,04,15,27,28.80
2009,06,04,15,28,28.80
2009,06,04,15,29,28.90
2009,06,04,15,30,28.90
2009,06,04,15,31,28.90
2009,06,04,15,32,29.00
2009,06,04,15,33,29.00
2009,06,04,15,34,29.00
2009,06,04,15,35,29.10
2009,06,04,15,36,29.20
2009,06,04,15,37,29.20
2009,06,04,15,38,29.20
2009,06,04,15,39,29.20
2009,06,04,15,40,29.20
2009,06,04,15,41,29.20
2009,06,04,15,42,29.20
2009,06,04,15,43,29.20
2009,06,04,15,44,29.20
2009,06,04,15,45,29.20
2009,06,04,15,46,29.10
2009,06,04,15,47,29.00
2009,06,04,15,48,29.00
2009,06,04,15,49,28.80
2009,06,04,15,50,28.80
2009,06,04,15,51,28.70
2009,06,04,15,52,28.70
2009,06,04,15,53,28.70
2009,06,04,15,54,28.70
2009,06,04,15,55,28.70
2009,06,04,15,56,28.70
2009,06,04,15,57,28.70
2009,06,04,15,58,28.70
2009,06,04,15,59,28.60
2009,06,04,16,00,28.60
2009,06,04,16,01,28.60
2009,06,04,16,02,28.70
2009,06,04,16,03,28.70
2009,06,04,16,04,28.70
2009,06,04,16,05,28.80
2009,06,04,16,06,28.80
2009,06,04,16,07,28.80
2009,06,04,16,08,28.80
2009,06,04,16,09,28.80
2009,06,04,16,10,28.90
2009,06,04,16,11,29.00
2009,06,04,16,12,29.10
2009,06,04,16,13,29.10
2009,06,04,16,14,29.20
2009,06,04,16,15,29.20
2009,06,04,16,16,29.30
2009,06,04,16,17,29.40
2009,06,04,16,18,29.50
2009,06,04,16,19,29.60
2009,06,04,16,20,29.60
2009,06,04,16,21,29.70
2009,06,04,16,22,29.70
2009,06,04,16,23,29.70
2009,06,04,16,24,29.70
2009,06,04,16,25,29.70
2009,06,04,16,26,29.70
2009,06,04,16,27,29.60
2009,06,04,16,28,29.60
2009,06,04,16,29,29.70
2009,06,04,16,30,29.70
2009,06,04,16,31,29.60
2009,06,04,16,32,29.50
2009,06,04,16,33,29.40
2009,06,04,16,34,29.40
2009,06,04,16,35,29.40
2009,06,04,16,36,29.40
2009,06,04,16,37,29.40
2009,06,04,16,38,29.30
2009,06,04,16,39,29.30
2009,06,04,16,40,29.30
2009,06,04,16,41,29.30
2009,06,04,16,42,29.20
2009,06,04,16,43,29.20
2009,06,04,16,44,29.20
2009,06,04,16,45,29.20
2009,06,04,16,46,29.10
2009,06,04,16,47,29.10
2009,06,04,16,48,29.10
2009,06,04,16,49,29.10
2009,06,04,16,50,29.20
2009,06,04,16,51,29.20
2009,06,04,16,52,29.20
2009,06,04,16,53,29.20
2009,06,04,16,54,29.20
2009,06,04,16,55,29.20
2009,06,04,16,56,29.20
2009,06,04,16,57,29.20
2009,06,04,16,58,29.10
2009,06,04,16,59,29.10
2009,06,04,17,00,29.10
2009,06,04,17,01,29.10
2009,06,04,17,02,29.20
2009,06,04,17,03,29.20
2009,06,04,17,04,29.10
2009,06,04,17,05,29.10
2009,06,04,17,06,29.10
2009,06,04,17,07,29.20
2009,06,04,17,08,29.30
2009,06,04,17,09,29.30
2009,06,04,17,10,29.50
2009,06,04,17,11,29.50
2009,06,04,17,12,29.50
2009,06,04,17,13,29.40
2009,06,04,17,14,29.40
2009,06,04,17,15,29.40
2009,06,04,17,16,29.40
2009,06,04,17,17,29.40
2009,06,04,17,18,29.40
2009,06,04,17,19,29.40